[[{"header":{"parameterUnit":"m.s-1","parameterCategory":1,"la1":30.2991,"la2":30.254,"lo1":-89.0895,"lo2":-89.0444,"dx":0.0017,"dy":0.0017,"nx":28,"ny":28,"refTime":"2022-11-30T15:00:00:Z","depth":0,"parameterNumber":2,"parameterNumberName":"U-component_of_WINDS"},"data":[0,0,0,0,0,0,0,0,0,0,0,0,0,0,0,0,0,0,0,0,0,0,0,0,0,0,0,0,0,0,0,0,0,0,0,0,0,0,0,0,0,0,0,0,0,0,0,0,0,0,0,0,0,0,0,0,0,0,3.7065,3.7065,0,3.7074,3.7074,3.7074,3.702,3.7018,3.7017,3.7015,3.7025,3.7027,3.7029,0,0,0,0,0,0,0,0,0,0,0,0,0,3.7,3.7001,3.7065,3.7065,3.7065,3.7074,3.7074,3.7074,3.702,3.7018,3.7016,3.7014,3.7025,3.7027,3.7029,0,0,0,0,0,0,0,0,0,0,0,0,0,3.7021,3.7002,3.7064,3.7039,3.7037,3.7074,3.7074,3.7074,3.702,3.7018,3.7016,3.7014,3.7024,3.7027,3.7029,3.7092,0,0,3.7037,3.7038,0,0,0,0,0,0,0,0,3.7019,3.7023,3.7042,3.7041,3.7038,3.7043,3.7055,3.708,3.7021,3.7027,3.7015,3.7012,3.7033,3.7035,3.7042,3.7092,3.7093,3.7037,3.7039,3.704,3.7041,0,0,0,0,0,0,0,3.7018,3.7022,3.7068,3.7043,3.704,3.7027,3.7027,3.7059,3.7043,3.7026,3.7022,3.7024,3.7032,3.7039,3.7042,3.7093,3.7037,3.7039,3.7041,3.7042,3.7194,3.7197,0,0,0,0,0,0,3.702,3.7021,3.7068,3.7068,3.7023,3.703,3.703,3.7044,3.7042,3.704,3.7026,3.7021,3.7036,3.7039,3.7042,3.7114,3.704,3.7042,3.7044,3.7192,3.7195,3.7198,0,0,0,0,0,0,3.7019,3.7025,3.7068,3.7044,3.7048,3.7034,3.7049,3.7045,3.7053,3.7042,3.7039,3.7037,3.7034,3.7038,3.7079,3.7114,3.7043,3.7046,3.7189,3.7193,3.7196,3.726,0,0,0,0,0,0,3.7017,3.7025,3.7048,3.7045,3.705,3.7105,3.7051,3.7047,3.7058,3.7052,3.7052,3.7049,3.7033,3.7076,3.7082,3.7116,3.7048,3.7186,3.7191,3.7195,3.7255,3.7266,3.7275,0,0,0,0,0,3.7015,3.7066,3.705,3.7056,3.7079,3.7107,3.711,3.709,3.7061,3.7084,3.7077,3.7049,3.7109,3.7081,3.7087,3.7122,3.7184,3.7189,3.7195,3.7251,3.7264,3.7275,0,0,0,0,0,0,3.7074,3.7065,3.7047,3.7098,3.7104,3.7098,3.7127,3.7104,3.7119,3.7113,3.7087,3.7087,3.7133,3.7132,3.71,3.7183,3.7141,3.7149,3.7182,3.7194,3.7204,3.7203,3.705,0,0,0,0,0,3.7093,3.7116,3.7107,3.7154,3.7157,3.7142,3.7154,3.7137,3.7142,3.7145,3.7141,3.7147,3.7167,3.718,3.7198,3.7255,3.7254,3.7283,3.7293,3.7301,3.7307,3.7336,3.7349,3.7216,3.7216,3.7216,0,0,3.7132,3.713,3.7147,3.7165,3.7168,3.7193,3.7144,3.7173,3.7191,3.7149,3.7187,3.7185,3.719,3.7239,3.7261,3.724,3.7344,3.7308,3.7315,3.7316,3.7343,3.7356,3.7367,3.722,3.7219,3.7219,0,0,3.7216,3.7217,3.7255,3.7259,3.7263,3.7253,3.7262,3.726,3.7257,3.7295,3.7264,3.7285,3.732,3.7325,3.7332,3.7419,3.7393,3.7425,3.7477,3.7506,3.7516,3.7525,3.7556,3.7567,3.7432,3.7432,3.7432,0,3.7264,3.73,3.7278,3.7309,3.7318,3.7281,3.7319,3.7324,3.7334,3.7341,3.7318,3.7361,3.7362,3.7411,3.7432,3.744,3.7449,3.7425,3.7517,3.7526,3.7534,3.7562,3.7574,3.7436,3.7435,3.7435,3.7434,0,3.7359,3.7385,3.7415,3.7426,3.7438,3.7473,3.7456,3.7471,3.7455,3.7447,3.7486,3.7486,3.7503,3.7514,3.7497,3.7561,3.7548,3.7521,3.7479,3.7551,3.7577,3.7588,3.7441,3.744,3.7439,3.7438,0,0,3.7479,3.7477,3.7489,3.7493,3.7495,3.7515,3.7548,3.7564,3.7578,3.7587,3.7613,3.7644,3.7619,3.7628,3.7612,3.7637,3.7705,3.7607,3.7607,3.7625,3.7774,3.7794,3.7807,3.7689,3.7691,3.7692,3.7773,0,3.756,3.7616,3.7597,3.7654,3.7678,3.7643,3.7672,3.7677,3.767,3.7689,3.7682,3.7704,3.767,3.7674,3.7698,3.7692,3.7734,3.7686,3.7713,3.7714,3.7712,3.782,3.7841,3.7918,3.7784,3.7785,3.7787,0,3.7663,3.7675,3.7734,3.7733,3.7742,3.7768,3.7781,3.78,3.7805,3.7798,3.7808,3.7786,3.7819,3.7777,3.7821,3.7788,3.7798,3.7797,3.7799,3.78,3.7754,3.7824,3.7942,3.7953,3.7803,3.7802,3.78,0,3.7743,3.7775,3.7815,3.7819,3.7819,3.7838,3.7839,3.7841,3.7852,3.7864,3.7871,3.7887,3.7895,3.7908,3.7892,3.7863,3.7938,3.7895,3.7933,3.7934,3.7949,3.7949,3.807,3.7958,3.7958,3.7958,3.7957,0,3.7836,3.7873,3.7851,3.7875,3.7916,3.7894,3.7935,3.7932,3.7934,3.7957,3.7929,3.7951,3.7928,3.7948,3.7936,3.7974,3.7978,3.7973,3.797,3.7975,3.7976,3.7981,3.7975,3.7961,3.796,3.7959,3.7959,0,3.7932,3.7919,3.7959,3.7956,3.7956,3.7986,3.7983,3.8005,3.7997,3.8026,3.8032,3.8019,3.8041,3.8026,3.8048,3.804,3.8089,3.8078,3.8088,3.8084,3.8122,3.8119,3.8251,3.8267,3.8145,3.8147,3.8148,0,3.7992,3.8019,3.8019,3.8032,3.8035,3.8056,3.8068,3.8048,3.806,3.8068,3.8089,3.8109,3.8123,3.816,3.8153,3.817,3.8159,3.8204,3.8161,3.8166,3.8158,3.8156,3.8159,3.8212,3.8214,3.8215,3.8216,0,3.8098,3.809,3.8107,3.8123,3.8137,3.8148,3.8156,3.8169,3.8149,3.8165,3.8187,3.8198,3.8221,3.8241,3.8255,3.8255,3.8232,3.8229,3.8239,3.8245,3.8248,3.8246,3.811,3.8226,3.8225,3.8224,3.8224,3.8223,3.8177,3.82,3.8203,3.8223,3.8228,3.8237,3.8257,3.8252,3.827,3.8287,3.8274,3.83,3.8304,3.8321,3.8324,3.8344,3.8326,3.834,3.8343,3.8347,3.8352,3.8246,3.8347,3.8347,3.8346,3.8346,3.8346,0,3.8281,3.8281,3.83,3.8313,3.8329,3.8307,3.8315,3.833,3.8353,3.8359,3.8374,3.84,3.8419,3.8413,3.843,3.8447,3.8437,3.8452,3.845,3.8451,3.8368,3.8357,3.846,3.846,3.846,3.846,3.846,3.846,3.8337,3.8374,3.8367,3.8407,3.8407,3.8432,3.8439,3.8447,3.8451,3.8481,3.8497,3.8493,3.8494,3.8511,3.8528,3.8526,3.8533,3.8552,3.8546,3.8468,3.8457,3.8446,3.8436,3.8554,3.8554,3.8627,3.8627,3.8628]},{"header":{"parameterUnit":"m.s-1","parameterCategory":1,"la1":30.2991,"la2":30.254,"lo1":-89.0895,"lo2":-89.0444,"dx":0.0017,"dy":0.0017,"nx":28,"ny":28,"refTime":"2022-11-30T15:00:00:Z","depth":0,"parameterNumber":3,"parameterNumberName":"V-component_of_WINDS"},"data":[0,0,0,0,0,0,0,0,0,0,0,0,0,0,0,0,0,0,0,0,0,0,0,0,0,0,0,0,0,0,0,0,0,0,0,0,0,0,0,0,0,0,0,0,0,0,0,0,0,0,0,0,0,0,0,0,0,0,5.6255,5.6257,0,5.6391,5.6393,5.6394,5.6394,5.6392,5.6391,5.6389,5.6527,5.6532,5.6538,0,0,0,0,0,0,0,0,0,0,0,0,0,5.5996,5.6001,5.6255,5.6257,5.6259,5.6391,5.6393,5.6395,5.6395,5.6392,5.639,5.6388,5.6525,5.6532,5.6538,0,0,0,0,0,0,0,0,0,0,0,0,0,5.6118,5.6002,5.6255,5.6275,5.6278,5.6391,5.6393,5.6395,5.6395,5.6392,5.639,5.6387,5.6523,5.6531,5.6539,5.6641,0,0,5.6563,5.6567,0,0,0,0,0,0,0,0,5.6111,5.6127,5.627,5.6273,5.6277,5.6373,5.6352,5.6477,5.6396,5.635,5.6389,5.6386,5.6478,5.6489,5.6521,5.6647,5.6653,5.6564,5.6569,5.6572,5.6575,0,0,0,0,0,0,0,5.6102,5.6121,5.6309,5.6272,5.6276,5.6277,5.6291,5.6376,5.6427,5.6354,5.6354,5.6371,5.6479,5.6513,5.6524,5.6655,5.6564,5.6571,5.6576,5.6579,5.6875,5.6878,0,0,0,0,0,0,5.609,5.6114,5.6305,5.6313,5.6186,5.6283,5.63,5.6345,5.6426,5.6436,5.6373,5.637,5.6501,5.6515,5.6529,5.6656,5.6572,5.658,5.6584,5.6872,5.6876,5.688,0,0,0,0,0,0,5.6084,5.6107,5.6299,5.6214,5.6238,5.6291,5.6342,5.6349,5.6383,5.644,5.645,5.6398,5.6499,5.6518,5.6614,5.6661,5.6583,5.6591,5.6869,5.6874,5.6878,5.6909,0,0,0,0,0,0,5.6077,5.6105,5.6144,5.6215,5.6243,5.6382,5.6344,5.6354,5.6397,5.6394,5.6466,5.6476,5.6499,5.6602,5.6622,5.667,5.6597,5.6865,5.6871,5.6876,5.6904,5.6915,5.6923,0,0,0,0,0,5.6068,5.6147,5.6146,5.6169,5.6293,5.6384,5.6401,5.6426,5.64,5.644,5.6478,5.6473,5.6652,5.6612,5.6634,5.6686,5.6862,5.6869,5.6876,5.69,5.6913,5.6923,0,0,0,0,0,0,5.6079,5.6156,5.6156,5.626,5.6316,5.6384,5.6435,5.6437,5.6501,5.6496,5.6524,5.6541,5.6637,5.6671,5.6624,5.679,5.6754,5.6766,5.6765,5.6777,5.6786,5.6777,5.6603,0,0,0,0,0,5.6094,5.6162,5.6225,5.6311,5.6339,5.6383,5.6423,5.6438,5.6496,5.652,5.6564,5.6621,5.669,5.6735,5.6802,5.6909,5.6926,5.6955,5.6965,5.6972,5.6983,5.7044,5.7059,5.6902,5.6902,5.6902,0,0,5.6125,5.6175,5.6216,5.6315,5.636,5.643,5.6402,5.6477,5.653,5.6531,5.6626,5.666,5.6725,5.6828,5.6876,5.6859,5.703,5.6981,5.6987,5.6993,5.7053,5.7068,5.7081,5.6907,5.6906,5.6905,0,0,5.6217,5.6262,5.6339,5.6385,5.6454,5.6483,5.6501,5.657,5.6594,5.6689,5.6692,5.6755,5.6873,5.692,5.6959,5.7072,5.7072,5.7093,5.7143,5.7203,5.7215,5.7226,5.7269,5.7283,5.7103,5.7103,5.7103,0,5.6247,5.6354,5.6379,5.6455,5.6499,5.6504,5.6584,5.6627,5.6714,5.6744,5.6724,5.6875,5.6918,5.7034,5.7062,5.7093,5.7116,5.7086,5.7211,5.7223,5.7233,5.7274,5.729,5.7105,5.7105,5.7105,5.7105,0,5.6388,5.6462,5.6516,5.6601,5.6651,5.6729,5.6766,5.6814,5.6825,5.6856,5.6954,5.7007,5.7086,5.7114,5.7124,5.7232,5.722,5.7205,5.717,5.725,5.7289,5.7305,5.7109,5.7108,5.7107,5.7107,0,0,5.6491,5.6591,5.6611,5.6651,5.6728,5.6785,5.6863,5.6941,5.6983,5.7042,5.711,5.721,5.7199,5.7243,5.7259,5.7311,5.7401,5.7291,5.7293,5.7312,5.7525,5.7537,5.7555,5.74,5.7403,5.7405,5.752,0,5.6594,5.6734,5.676,5.6882,5.6952,5.6958,5.7027,5.7082,5.7113,5.7177,5.7211,5.7283,5.7261,5.7288,5.734,5.7379,5.7444,5.7371,5.7464,5.7467,5.745,5.7575,5.7587,5.7693,5.7536,5.7538,5.754,0,5.6732,5.6798,5.6927,5.6997,5.7027,5.7088,5.7163,5.7224,5.7287,5.7306,5.7357,5.7368,5.745,5.741,5.7525,5.7475,5.7514,5.7539,5.7544,5.7555,5.751,5.7591,5.7727,5.7744,5.7564,5.7562,5.756,0,5.6798,5.6917,5.7011,5.7045,5.7128,5.7172,5.7208,5.7269,5.7315,5.738,5.741,5.7484,5.7524,5.7581,5.7612,5.7579,5.7726,5.7687,5.7745,5.7745,5.7777,5.7775,5.7923,5.7799,5.7799,5.7799,5.7798,0,5.6911,5.699,5.7042,5.71,5.719,5.7219,5.7307,5.7343,5.7397,5.7463,5.7472,5.7533,5.7569,5.7636,5.766,5.7753,5.777,5.7789,5.7795,5.779,5.7788,5.7818,5.7812,5.7803,5.7802,5.7801,5.78,0,5.6999,5.7037,5.714,5.7212,5.7231,5.7295,5.7356,5.7413,5.7444,5.7527,5.7548,5.7598,5.7677,5.7713,5.781,5.7827,5.7934,5.7933,5.7913,5.7916,5.7972,5.7967,5.8147,5.8173,5.8029,5.8031,5.8032,0,5.707,5.7132,5.721,5.7255,5.7294,5.7366,5.7413,5.7445,5.7494,5.7572,5.762,5.77,5.7765,5.7892,5.7937,5.8012,5.8015,5.8072,5.8026,5.8019,5.8018,5.8015,5.8023,5.8081,5.8082,5.8084,5.8084,0,5.7192,5.7208,5.7277,5.7353,5.741,5.7471,5.7531,5.7567,5.7608,5.7663,5.7745,5.7796,5.7897,5.7977,5.8055,5.8093,5.8097,5.8099,5.8117,5.8113,5.8099,5.811,5.7938,5.8095,5.8094,5.8093,5.8092,5.8092,5.7276,5.7332,5.7397,5.7474,5.7522,5.7579,5.7637,5.7676,5.7745,5.783,5.7844,5.7932,5.7996,5.8102,5.8143,5.8212,5.8198,5.8223,5.823,5.8237,5.8241,5.8087,5.8226,5.8226,5.8226,5.8225,5.8225,0,5.74,5.7443,5.7513,5.7598,5.7659,5.7657,5.7724,5.7775,5.7852,5.7911,5.7976,5.8072,5.815,5.8201,5.828,5.8326,5.833,5.8346,5.8344,5.8354,5.8248,5.8226,5.8342,5.8342,5.8342,5.8342,5.8342,5.8342,5.7472,5.7568,5.7593,5.7714,5.7755,5.7842,5.7881,5.7934,5.7981,5.8088,5.8153,5.8186,5.8243,5.8327,5.8399,5.8412,5.8442,5.8459,5.8472,5.8373,5.836,5.8349,5.8328,5.8465,5.8465,5.8572,5.8573,5.8574]}]]